ISS (ZARYA) 1 25544U 98067A 26093.87567842 .00012431 00000+0 23534-3 0 9997 2 25544 51.6327 307.8415 0006252 268.9169 91.1103 15.48754008560233 POISK 1 36086U 09060A 26093.87567842 .00012431 00000+0 23534-3 0 9995 2 36086 51.6327 307.8415 0006252 268.9169 91.1103 15.48754008559582 CSS (TIANHE) 1 48274U 21035A 26093.91788759 .00034044 00000+0 38146-3 0 9999 2 48274 41.4677 54.5067 0003818 119.2537 240.8684 15.61969503281559 ISS (NAUKA) 1 49044U 21066A 26093.87567842 .00012431 00000+0 23534-3 0 9993 2 49044 51.6327 307.8415 0006252 268.9169 91.1103 15.48754008559625 FREGAT DEB 1 49271U 11037PF 26093.74034269 .00014511 00000+0 20896-1 0 9997 2 49271 51.6424 225.5290 0956481 116.8395 253.3461 12.40896795215809 CSS (WENTIAN) 1 53239U 22085A 26093.91788759 .00034044 00000+0 38146-3 0 9992 2 53239 41.4677 54.5067 0003818 119.2537 240.8684 15.61969503281152 CSS (MENGTIAN) 1 54216U 22143A 26093.91788759 .00034044 00000+0 38146-3 0 9993 2 54216 41.4677 54.5067 0003818 119.2537 240.8684 15.61969503281158 TIANZHOU-9 1 64786U 25149A 26093.91788759 .00034044 00000+0 38146-3 0 9995 2 64786 41.4677 54.5067 0003818 119.2537 240.8684 15.61969503281151 PROGRESS-MS 32 1 65586U 25204A 26093.87567842 .00012431 00000+0 23534-3 0 9990 2 65586 51.6327 307.8415 0006252 268.9169 91.1103 15.48754008554506 YOTSUBA-KULOVER 1 65941U 98067XN 26093.57088137 .00641591 18855-3 14072-2 0 9996 2 65941 51.6135 286.9050 0007586 259.6628 100.3526 15.97505372 27451 BOTAN 1 65943U 98067XQ 26093.77409454 .00636418 18254-3 14910-2 0 9995 2 65943 51.6178 286.0402 0007868 257.0991 102.9138 15.96305411 27481 HRC MONOBLOCK CAMERA 1 66052U 98067XR 26093.81848654 .00085926 00000+0 85191-3 0 9999 2 66052 51.6272 298.4531 0003871 217.8156 142.2568 15.65058678 26327 HTV-X1 1 66174U 25241A 26093.95240928 .00008859 00000+0 28902-3 0 9990 2 66174 51.6358 311.2938 0007291 270.0486 89.9660 15.32525679 24815 SZ-21 MODULE 1 66515U 25246C 26093.57082554 .00056445 00000+0 44364-3 0 9995 2 66515 41.4748 49.9717 0002970 226.3876 133.6720 15.70603524 21987 SHENZHOU-22 1 66645U 25272A 26093.91788759 .00034044 00000+0 38146-3 0 9998 2 66645 41.4677 54.5067 0003818 119.2537 240.8684 15.61969503281157 SOYUZ-MS 28 1 66664U 25275A 26093.87567842 .00012431 00000+0 23534-3 0 9996 2 66664 51.6327 307.8415 0006252 268.9169 91.1103 15.48754008559868 DUPLEX 1 66906U 98067XS 26093.87371085 .00042685 00000+0 56333-3 0 9993 2 66906 51.6281 303.3293 0003150 230.6102 129.4612 15.57944721 19053 ISS OBJECT XT 1 66907U 98067XT 26093.79054114 .00346833 00000+0 17775-2 0 9994 2 66907 51.6221 296.7263 0007070 244.1010 115.9263 15.79721293 19135 ISS OBJECT XU 1 66908U 98067XU 26093.78566026 .00356022 00000+0 17948-2 0 9997 2 66908 51.6220 296.6887 0007202 243.6126 116.4136 15.80057487 19139 SILVERSAT 1 66909U 98067XV 26093.77994827 .00579654 00000+0 20456-2 0 9997 2 66909 51.6183 295.1303 0008837 251.8453 108.1590 15.87036354 19155 ISS OBJECT XW 1 66910U 98067XW 26093.93069093 .00342281 00000+0 19076-2 0 9995 2 66910 51.6198 296.1540 0007331 240.6945 119.3324 15.77869270 19156 ISS OBJECT XX 1 66911U 98067XX 26093.94203051 .01132347 63337-3 24721-2 0 9991 2 66911 51.6149 292.4142 0011034 258.7904 101.1865 15.97601047 19191 ISS OBJECT XY 1 66912U 98067XY 26093.78423691 .00161885 00000+0 13386-2 0 9995 2 66912 51.6250 299.7150 0004899 237.6031 122.4492 15.69233885 19082 KNACKSAT-2 1 67683U 98067XZ 26093.95420513 .00065956 00000+0 99573-3 0 9995 2 67683 51.6305 306.1177 0010514 279.0913 80.8888 15.54059237 8716 CORAL 1 67684U 98067YA 26093.80460641 .00133892 00000+0 16648-2 0 9992 2 67684 51.6284 305.8684 0013485 268.4789 91.4659 15.58915220 8705 GXIBA-1 1 67685U 98067YB 26093.81336782 .00075333 00000+0 11093-2 0 9996 2 67685 51.6298 306.6778 0012439 275.1790 84.7781 15.54660633 8699 UITMSAT-2 1 67686U 98067YC 26093.79480319 .00085147 00000+0 12028-2 0 9993 2 67686 51.6307 306.5559 0009467 249.4305 110.5671 15.55773967 8692 HMU-SAT2 1 67687U 98067YD 26093.88358982 .00071531 00000+0 10661-2 0 9997 2 67687 51.6307 306.3995 0008998 252.1797 107.8212 15.54393032 8622 LEOPARD 1 67688U 98067YE 26093.80326683 .00076143 00000+0 10982-2 0 9993 2 67688 51.6306 306.6128 0009236 249.5445 110.4555 15.55259646 8611 CREW DRAGON 12 1 67796U 26031A 26093.87567842 .00012431 00000+0 23534-3 0 9994 2 67796 51.6327 307.8415 0006252 268.9169 91.1103 15.48754008560205 PROGRESS-MS 33 1 68319U 26058A 26093.87567842 .00012431 00000+0 23534-3 0 9995 2 68319 51.6327 307.8415 0006252 268.9169 91.1103 15.48754008 1252